APRIZESAT 5

Last updated on Sun Jun 21 2026 00:03:42 GMT+0000 (Coordinated Universal Time)

1 37792U 11044E 26171.38517685 .00000822 00000+0 11100-3 0 9995 2 37792 98.2452 104.5162 0052090 354.0370 6.0215 14.81081854799264
UTC large
Height (km)
Speed (km/s)
/
Latitude / Longitude
Inclination (degrees)
Orbital Period (minutes)
Azimuth
Elevation
Range (km)
Doppler Factor

Next 0 passes for location: London (51.5072 / 0.1276)

No passes found over London.
APRIZESAT 5